Date,TemperatureHighF,TemperatureAvgF,TemperatureLowF,DewpointHighF,DewpointAvgF,DewpointLowF,HumidityHigh,HumidityAvg,HumidityLow,PressureMaxIn,PressureMinIn,WindSpeedMaxMPH,WindSpeedAvgMPH,GustSpeedMaxMPH,PrecipitationSumIn
2013-1-1,50,45,39,40,34,27,90,68,45,30.28,30.21,7,1,0,0.00
2013-1-2,55,48,42,34,30,26,66,50,42,30.25,30.15,11,2,0,0.00
2013-1-3,54,47,40,39,33,25,74,60,40,30.28,30.17,6,2,0,0.00
2013-1-4,57,49,45,37,34,31,73,57,43,30.30,30.19,7,1,0,0.00
2013-1-5,48,44,42,46,41,37,95,89,74,30.26,30.07,7,1,0,0.58
2013-1-6,52,46,42,47,43,41,96,90,80,30.20,30.07,7,1,0,0.18
2013-1-7,62,48,42,52,45,40,93,87,70,30.26,30.16,9,0,0,0.00
2013-1-8,55,49,45,47,44,42,93,83,71,30.25,30.14,5,1,0,0.01
2013-1-9,53,47,43,48,42,35,89,81,70,30.16,29.98,29,7,0,0.01
2013-1-10,49,44,40,37,34,30,80,68,57,30.19,30.07,23,9,0,0.00
2013-1-11,52,45,42,39,34,27,81,66,53,30.25,30.12,22,7,0,0.00
2013-1-12,49,43,39,37,30,21,76,61,37,30.25,30.15,6,1,0,0.00
2013-1-13,51,41,35,33,25,14,73,54,31,30.28,30.18,5,1,0,0.00
2013-1-14,50,44,39,28,20,13,54,39,30,30.41,30.24,8,1,0,0.00
2013-1-15,51,44,37,37,30,26,88,59,41,30.49,30.40,6,1,0,0.00
2013-1-16,56,48,42,35,30,24,64,51,34,30.44,30.27,10,3,0,0.00
2013-1-17,62,53,46,36,32,27,59,44,34,30.27,30.16,7,2,0,0.00
2013-1-18,64,54,48,36,32,24,60,43,29,30.24,30.15,9,2,0,0.00
2013-1-19,62,56,52,37,29,22,47,36,26,30.26,30.16,6,2,0,0.00
2013-1-20,64,57,51,34,28,24,46,34,27,30.23,30.14,6,2,0,0.00
2013-1-21,63,54,47,40,33,25,64,46,35,30.18,30.10,10,2,0,0.00
2013-1-22,60,53,49,41,38,34,68,56,45,30.13,30.00,9,2,0,0.00
2013-1-23,53,50,47,49,44,40,94,81,65,30.10,29.96,7,1,0,0.42
2013-1-24,57,52,48,52,49,46,94,89,81,30.20,30.07,9,1,0,0.00
2013-1-25,63,57,52,55,52,48,92,82,72,30.19,30.04,9,1,0,0.00
2013-1-26,57,51,46,50,42,36,91,73,53,30.07,29.98,28,9,0,0.00
2013-1-27,55,47,43,40,36,32,79,66,49,30.18,30.06,22,10,0,0.00
2013-1-28,56,48,44,42,39,34,81,69,57,30.28,30.16,22,9,0,0.00
2013-1-29,60,51,46,45,40,37,78,68,53,30.36,30.26,17,4,0,0.00
2013-1-30,65,54,46,47,44,42,88,69,49,30.34,30.26,6,1,0,0.00
2013-1-31,65,55,48,47,44,40,82,65,51,30.29,30.18,9,1,0,0.00
2013-2-1,65,56,51,45,43,41,73,61,48,30.21,30.12,9,1,0,0.00
2013-2-2,60,50,46,49,45,42,90,83,66,30.30,30.21,6,1,0,0.00
2013-2-3,59,50,45,47,44,39,88,78,65,30.25,30.14,17,3,0,0.00
2013-2-4,54,46,42,49,44,41,95,92,82,30.18,30.07,5,0,0,0.01
2013-2-5,56,49,43,46,42,38,94,79,65,30.16,30.07,22,6,0,0.00
2013-2-6,59,48,43,45,40,37,85,73,53,30.19,30.13,17,4,0,0.00
2013-2-7,54,47,41,46,41,36,94,81,52,30.16,30.00,19,3,0,0.33
2013-2-8,56,46,38,41,36,25,93,72,39,30.02,29.94,17,2,0,0.07
2013-2-9,58,50,44,36,30,24,59,48,35,30.09,30.00,7,1,0,0.00
2013-2-10,60,48,41,43,35,24,85,62,41,30.12,30.03,7,1,0,0.00
2013-2-11,63,54,45,44,32,24,81,45,33,30.22,30.08,8,1,0,0.00
2013-2-12,62,50,41,45,40,36,93,70,43,30.37,30.22,5,1,0,0.00
2013-2-13,65,50,42,48,42,37,94,74,50,30.34,30.21,4,0,0,0.00
2013-2-14,68,57,45,46,43,40,86,60,41,30.25,30.16,8,1,0,0.00
2013-2-15,72,62,53,45,39,35,65,45,35,30.27,30.20,13,2,0,0.00
2013-2-16,68,59,50,45,42,38,73,54,42,30.23,30.04,10,1,0,0.00
2013-2-17,63,52,44,47,43,40,89,73,52,30.05,29.97,7,1,0,0.00
2013-2-18,52,46,41,41,39,36,91,77,60,30.03,29.96,15,3,0,0.00
2013-2-19,46,43,39,42,37,31,89,79,65,29.97,29.75,22,6,0,0.42
2013-2-20,58,48,39,40,34,29,74,60,43,30.07,29.86,20,6,0,0.00
2013-2-21,60,50,43,37,34,29,76,55,35,30.17,30.05,23,5,0,0.00
2013-2-22,64,52,43,46,39,35,79,63,34,30.25,30.17,19,4,0,0.00
2013-2-23,55,49,46,45,36,26,88,63,42,30.25,30.16,20,8,0,0.00
2013-2-24,62,53,45,39,29,21,72,41,28,30.25,30.17,6,2,0,0.00
2013-2-25,65,52,43,44,39,32,87,64,43,30.26,30.17,10,2,0,0.00
2013-2-26,68,55,44,41,33,25,68,46,26,30.22,30.14,6,1,0,0.00
2013-2-27,70,54,46,48,40,34,77,59,39,30.36,30.20,18,3,0,0.00
2013-2-28,69,56,48,52,48,44,89,77,55,30.44,30.36,10,1,0,0.00
2013-3-1,69,59,47,55,48,45,94,70,45,30.43,30.24,7,1,0,0.00
2013-3-2,67,59,52,53,49,46,82,70,58,30.24,30.06,15,1,0,0.00
2013-3-3,65,53,45,49,46,42,90,77,53,30.09,30.02,23,3,0,0.00
2013-3-4,60,47,41,47,42,38,92,84,60,30.15,30.06,12,1,0,0.00
2013-3-5,50,46,40,45,41,36,93,83,75,30.07,29.83,20,6,0,0.19
2013-3-6,52,48,44,48,42,38,94,78,63,30.07,29.83,32,6,0,0.16
2013-3-7,52,47,42,44,41,38,92,81,63,30.00,29.87,7,1,0,0.02
2013-3-8,57,50,45,42,38,33,80,65,50,30.04,29.84,35,8,0,0.00
2013-3-9,67,54,43,46,40,36,82,62,37,30.30,30.05,11,2,0,0.00
2013-3-10,68,56,47,47,41,35,83,60,34,30.35,30.24,6,1,0,0.00
2013-3-11,71,57,45,47,43,38,87,62,39,30.25,30.09,8,1,0,0.00
2013-3-12,72,56,43,53,47,41,93,75,42,30.16,30.07,9,1,0,0.00
2013-3-13,77,61,47,55,50,45,93,69,42,30.16,30.06,9,1,0,0.00
2013-3-14,70,58,50,55,47,36,92,69,29,30.16,30.07,18,2,0,0.00
2013-3-15,73,57,49,54,46,41,82,68,46,30.13,30.03,16,1,0,0.00
2013-3-16,72,57,45,52,44,39,95,68,34,30.11,30.01,32,6,0,0.00
2013-3-17,66,57,49,46,40,35,72,55,45,30.15,30.04,26,5,0,0.00
2013-3-18,65,54,45,50,43,30,83,67,35,30.12,30.03,16,1,0,0.00
2013-3-19,62,52,45,50,43,29,88,71,34,30.14,30.05,5,1,0,0.04
2013-3-20,60,51,46,55,47,42,93,87,69,30.15,30.07,15,3,0,0.13
2013-3-21,64,53,44,47,41,38,86,66,45,30.13,30.02,19,4,0,0.00
2013-3-22,69,56,48,41,33,23,74,44,21,30.12,30.03,11,2,0,0.00
2013-3-23,65,56,51,41,34,26,68,43,29,30.14,30.04,9,1,0,0.00
2013-3-24,67,55,47,48,43,38,80,66,46,30.09,29.97,10,1,0,0.00
2013-3-25,60,50,44,47,42,39,87,76,59,30.02,29.94,20,2,0,0.00
2013-3-26,64,51,44,50,44,40,88,77,61,30.01,29.93,7,0,0,0.00
2013-3-27,55,51,48,52,48,43,92,89,81,30.02,29.94,13,3,0,0.00
2013-3-28,68,55,51,54,51,49,94,86,55,30.09,30.01,10,2,0,0.01
2013-3-29,72,60,51,54,51,49,93,73,53,30.09,30.01,14,2,0,0.00
2013-3-30,64,55,52,52,50,46,93,82,53,30.08,29.97,21,4,0,0.17
2013-3-31,59,54,51,54,51,50,95,91,78,30.07,29.99,17,4,0,0.15
2013-4-1,65,55,51,53,50,46,96,84,57,30.16,30.05,11,2,0,0.22
2013-4-2,59,52,48,52,47,45,89,85,77,30.18,30.15,2,0,0,0.00
2013-5-27,54,54,53,52,52,52,93,92,92,30.03,29.99,7,3,0,0.03
2013-5-28,70,60,53,57,52,46,95,78,57,30.00,29.92,14,3,0,0.01
2013-5-29,70,61,55,54,49,39,85,65,39,29.96,29.89,21,5,0,0.00
2013-5-30,75,62,50,50,46,35,86,59,25,29.98,29.92,19,2,0,0.00
2013-5-31,89,68,51,55,49,44,85,56,21,30.01,29.90,9,1,0,0.00
2013-6-1,92,72,56,57,51,46,72,51,28,29.93,29.75,11,2,0,0.00
2013-6-2,80,63,51,56,50,47,87,65,38,29.77,29.65,15,2,0,0.00
2013-6-3,62,56,50,51,50,47,93,80,68,29.86,29.70,30,8,0,0.00
2013-6-4,62,55,50,52,50,47,92,83,70,29.97,29.86,15,3,0,0.00
2013-6-5,67,56,50,53,50,47,91,81,62,30.00,29.91,11,2,0,0.00
2013-6-6,69,57,49,55,50,47,93,80,60,29.95,29.84,8,1,0,0.00
2013-6-7,85,63,50,63,54,48,95,75,46,29.89,29.71,5,1,0,0.00
2013-6-8,83,67,58,60,54,51,84,63,45,29.80,29.70,24,5,0,0.00
2013-6-9,59,56,54,53,52,51,93,87,79,29.89,29.79,22,6,0,0.01
2013-6-10,60,56,52,53,52,50,94,87,75,29.96,29.80,15,4,0,0.08
2013-6-11,75,62,54,58,53,45,90,74,42,29.99,29.88,10,1,0,0.00
2013-6-12,77,62,50,53,47,42,83,60,32,29.98,29.90,21,2,0,0.00
2013-6-13,79,64,49,52,47,43,84,56,29,30.08,29.98,18,2,0,0.00
2013-6-14,82,68,54,54,48,44,75,53,27,29.98,29.81,13,2,0,0.00
2013-6-15,73,57,48,55,49,45,92,76,48,29.98,29.81,16,3,0,0.00
2013-6-16,79,64,50,55,49,45,89,63,38,30.07,29.98,23,4,0,0.00
2013-6-17,72,62,52,55,49,-100,82,67,54,30.08,30.00,24,-5,0,0.00
2013-6-18,65,59,55,51,47,45,85,67,50,30.02,29.94,27,12,0,0.00
2013-6-19,72,61,54,50,46,43,74,58,43,30.05,29.97,29,9,0,0.00
2013-6-20,78,64,52,53,46,40,76,54,33,30.00,29.91,23,4,0,0.00
2013-6-21,82,66,52,55,49,42,84,58,24,29.97,29.90,14,2,0,0.00
2013-6-22,87,68,54,55,49,40,78,54,27,29.92,29.81,24,4,0,0.00
2013-6-23,66,60,56,58,55,52,93,84,74,29.86,29.81,21,5,0,0.00
2013-6-24,62,57,54,56,54,52,94,90,78,29.91,29.79,20,3,0,0.11
2013-6-25,61,59,56,60,57,55,96,95,93,29.99,29.88,27,7,0,2.34
2013-6-26,82,68,58,66,61,57,97,81,54,30.05,29.97,14,2,0,0.00
2013-6-27,87,72,58,65,60,54,95,69,33,30.07,30.00,14,2,0,0.00
2013-6-28,95,79,63,67,59,50,83,55,25,30.02,29.87,21,3,0,0.00
2013-6-29,96,79,63,66,57,51,73,49,25,29.89,29.76,21,3,0,0.00
2013-6-30,91,74,61,64,59,53,78,61,34,29.82,29.73,11,1,0,0.00
2013-7-1,90,71,57,65,59,54,89,67,41,29.83,29.78,14,1,0,0.00
2013-7-2,80,71,62,59,56,53,78,60,39,29.90,29.80,25,7,0,0.00
2013-7-3,87,70,56,64,58,54,90,67,43,29.89,29.75,16,2,0,0.00
2013-7-4,94,76,64,63,56,44,80,54,25,29.77,29.64,29,5,0,0.00
2013-7-5,69,62,51,56,52,48,90,71,52,29.75,29.68,14,3,0,0.00
2013-7-6,65,53,50,53,50,48,94,88,65,29.81,29.73,24,10,0,0.00
2013-7-7,71,58,51,56,52,49,93,80,56,29.86,29.78,16,4,0,0.00
2013-7-8,79,59,52,56,52,47,93,78,33,29.97,29.86,10,2,0,0.00
2013-7-9,89,66,51,62,55,49,94,71,31,30.03,29.92,10,1,0,0.00
2013-7-10,74,60,51,57,52,48,91,76,49,29.97,29.89,13,2,0,0.00
2013-7-11,70,56,49,56,51,47,93,84,60,29.94,29.87,17,2,0,0.00
2013-7-12,71,56,51,57,51,48,93,84,60,29.95,29.87,15,4,0,0.00
2013-7-13,74,60,51,58,52,48,93,78,53,29.96,29.89,17,4,0,0.00
2013-7-14,76,59,50,58,52,47,93,79,54,29.99,29.88,8,1,0,0.00
2013-7-15,65,55,49,54,50,47,93,85,66,29.92,29.84,14,2,0,0.01
2013-7-16,59,56,52,56,52,49,93,88,85,30.03,29.86,12,3,0,0.00
2013-7-17,73,61,53,59,54,51,91,80,60,30.09,30.02,11,2,0,0.00
2013-7-18,78,61,49,59,53,48,95,78,49,30.05,29.93,8,1,0,0.01
2013-7-19,76,60,51,60,54,49,95,80,56,29.94,29.81,15,2,0,0.00
2013-7-20,71,58,50,57,52,49,95,83,59,29.85,29.73,17,3,0,0.00
2013-7-21,77,63,51,55,52,49,93,70,44,29.86,29.77,21,5,0,0.00
2013-7-22,77,65,57,59,56,52,91,74,48,29.95,29.87,20,5,0,0.00
2013-7-23,76,65,58,60,56,53,86,73,50,29.99,29.92,10,1,0,0.00
2013-7-24,85,67,55,62,56,52,89,71,46,29.98,29.89,7,1,0,0.00
2013-7-25,76,62,53,59,54,50,92,77,54,30.01,29.91,10,2,0,0.00
2013-7-26,74,60,52,59,54,50,93,80,59,30.09,29.99,11,2,0,0.00
2013-7-27,73,59,52,58,53,50,94,82,59,30.03,29.86,19,3,0,0.00
2013-7-28,65,55,51,53,51,49,94,87,66,29.88,29.81,24,5,0,0.00
2013-7-29,61,55,52,54,52,50,92,87,75,30.02,29.84,25,8,0,0.00
2013-7-30,66,57,52,56,52,50,95,84,65,30.11,30.02,18,3,0,0.00
2013-7-31,79,59,50,60,52,49,94,80,47,30.09,29.99,12,2,0,0.00
2013-8-1,79,63,53,58,54,49,89,72,46,30.05,29.95,5,1,0,0.00
2013-8-2,74,62,52,57,53,49,94,75,54,29.96,29.88,18,2,0,0.00
2013-8-3,66,55,49,55,51,47,94,85,67,29.97,29.90,18,6,0,0.01
2013-8-4,69,56,51,56,51,48,93,84,62,30.00,29.95,16,2,0,0.00
2013-8-5,72,58,50,56,52,48,93,81,55,30.02,29.92,7,1,0,0.00
2013-8-6,69,58,51,57,52,48,92,82,64,30.04,29.97,12,2,0,0.00
2013-8-7,62,58,55,56,54,52,92,88,77,30.11,30.04,14,3,0,0.00
2013-8-8,72,60,53,58,54,50,94,81,54,30.04,29.93,13,1,0,0.00
2013-8-9,72,59,52,57,53,49,93,81,60,29.99,29.91,12,1,0,0.00
2013-8-10,77,62,55,60,56,52,91,79,55,30.03,29.98,10,1,0,0.00
2013-8-11,77,61,53,59,55,51,95,80,53,30.02,29.92,6,1,0,0.00
2013-8-12,77,60,51,59,54,49,94,80,50,30.00,29.92,12,2,0,0.00
2013-8-13,88,66,51,61,54,49,94,70,34,29.99,29.89,7,1,0,0.01
2013-8-14,85,67,55,61,55,49,87,68,33,29.96,29.88,11,1,0,0.00
2013-8-15,87,70,58,66,61,56,94,76,49,29.95,29.89,9,1,0,0.00
2013-8-16,66,61,57,60,58,55,94,91,80,29.97,29.92,4,0,0,0.00
2013-11-4,73,61,60,35,29,-100,38,33,19,30.07,29.95,9,-25,0,0.00
2013-11-5,71,62,54,39,35,30,48,37,30,30.21,30.06,7,1,0,0.00
2013-11-6,71,62,54,39,37,33,50,40,31,30.26,30.15,7,1,0,0.00
2013-11-7,74,63,55,49,42,37,76,48,34,30.16,30.06,9,1,0,0.00
2013-11-8,73,57,49,54,48,43,94,73,44,30.07,29.94,16,1,0,0.00
2013-11-9,70,57,48,49,45,41,87,68,45,30.04,29.97,14,2,0,0.00
2013-11-10,62,53,49,50,47,45,89,80,65,30.11,30.02,15,3,0,0.00
2013-11-11,64,55,46,53,48,44,93,78,57,30.18,30.08,5,0,0,0.00
2013-11-12,67,60,54,52,48,44,76,65,54,30.26,30.15,7,1,0,0.00
2013-11-13,78,60,52,56,51,48,89,73,47,30.24,30.09,5,0,0,0.00
2013-11-14,62,54,46,54,47,35,95,78,41,30.10,29.86,27,4,0,0.01
2013-11-15,66,56,49,44,41,37,77,58,40,29.87,29.73,22,2,0,0.00
2013-11-16,64,54,46,49,44,39,84,72,51,29.92,29.76,16,3,0,0.00
2013-11-17,60,51,46,48,45,41,93,80,63,30.09,29.92,10,1,0,0.00
2013-11-18,57,50,46,48,45,41,91,83,70,30.15,30.08,11,2,0,0.00
2013-11-19,55,53,50,54,51,47,95,93,86,30.10,29.94,17,5,0,1.28
2013-11-20,58,54,49,55,52,47,95,94,84,29.94,29.85,15,4,0,0.68
2013-11-21,63,54,49,48,36,21,95,57,25,30.00,29.89,11,1,0,0.00
2013-11-22,72,62,53,27,19,12,29,20,14,30.02,29.91,11,2,0,0.00
2013-11-23,66,55,49,37,30,26,59,41,26,30.10,29.96,11,2,0,0.00
2013-11-24,59,52,44,44,40,36,91,65,50,30.25,30.09,8,0,0,0.00
2013-11-25,62,54,46,46,42,38,80,65,52,30.33,30.25,5,1,0,0.00
2013-11-26,62,54,50,43,40,36,69,58,47,30.27,30.05,6,1,0,0.00
2013-11-27,61,55,50,45,42,39,71,62,52,30.04,29.85,5,1,0,0.00
2013-11-28,68,60,55,44,41,38,60,50,39,30.06,29.87,10,1,0,0.00
2013-11-29,68,57,49,46,43,40,79,60,44,30.21,30.06,3,0,0,0.00
2013-11-30,65,55,48,48,45,42,84,68,52,30.27,30.19,7,0,0,0.00
2013-12-1,66,58,50,49,45,42,77,63,49,30.34,30.22,3,0,0,0.00
2013-12-2,61,55,48,52,48,43,88,77,63,30.22,29.95,23,4,0,0.00
2013-12-3,55,48,44,51,36,25,86,62,47,29.95,29.84,26,9,0,0.00
2013-12-4,50,44,40,29,23,16,58,45,35,30.08,29.95,6,1,0,0.00
2013-12-5,68,43,36,37,22,13,62,43,29,30.17,30.08,5,0,0,0.00
2013-12-6,52,43,35,47,35,26,91,75,54,30.20,29.92,21,3,0,1.16
2013-12-7,47,42,37,41,29,24,83,61,46,30.26,29.93,23,6,0,0.00
2013-12-8,42,38,32,28,24,19,77,60,46,30.33,30.24,10,1,0,0.00
2013-12-9,47,39,34,26,21,17,59,49,38,30.43,30.32,15,2,0,0.00
2013-12-10,53,43,36,30,26,24,67,52,39,30.43,30.21,6,2,0,0.00
2013-12-11,56,47,41,32,29,24,64,50,37,30.26,30.19,8,2,0,0.00
2013-12-12,61,50,45,35,32,29,64,51,37,30.27,30.17,5,1,0,0.00
2013-12-13,55,48,39,42,38,33,91,70,46,30.33,30.22,5,0,0,0.00
2013-12-14,60,52,42,39,36,32,79,57,43,30.40,30.31,7,1,0,0.00
2013-12-15,60,54,48,38,36,32,59,52,42,30.36,30.24,8,2,0,0.00
2013-12-16,66,59,52,38,35,30,54,41,32,30.25,30.13,9,3,0,0.00
2013-12-17,64,58,54,40,36,33,55,44,35,30.18,30.02,9,2,0,0.00
2013-12-18,60,54,48,46,39,32,85,59,38,30.03,29.74,26,3,0,0.00
2013-12-19,62,51,46,40,32,17,78,51,28,29.93,29.70,28,5,0,0.00
2013-12-20,62,51,46,37,26,15,55,38,26,30.02,29.92,5,0,0,0.00
2013-12-21,63,53,47,49,46,39,91,76,61,30.08,29.95,15,2,0,0.00
2013-12-22,63,55,46,45,39,35,88,56,42,30.28,30.08,5,0,0,0.00
2013-12-23,62,56,50,41,38,36,61,53,44,30.40,30.28,6,1,0,0.00
2013-12-24,68,58,47,45,41,38,74,54,43,30.34,30.20,3,0,0,0.00
2013-12-25,66,57,50,42,38,34,66,51,38,30.30,30.21,11,2,0,0.00
2013-12-26,66,60,55,38,35,31,50,40,32,30.26,30.17,8,2,0,0.00
2013-12-27,60,55,51,39,37,31,62,51,35,30.24,30.12,12,2,0,0.00
2013-12-28,64,54,44,38,34,26,67,49,25,30.15,30.03,6,0,0,0.00
2013-12-29,66,58,51,34,27,20,48,32,21,30.18,30.09,6,2,0,0.00
2013-12-30,60,53,48,41,36,27,63,52,35,30.25,30.17,7,1,0,0.00
2013-12-31,61,52,44,40,35,31,74,53,36,30.27,30.16,2,0,0,0.00
2014-1-1,64,53,44,44,35,29,74,52,35,30.21,30.13,3,0,0,0.00
2014-1-2,65,58,51,37,35,31,52,42,33,30.19,30.06,7,1,0,0.00